Location: ??????????
(54.8537°N, 38.8755°E)
Time: 15:49:54
(UTC+00:00)

Vanguard 3 - Visible Passes

Search period start: 13 September 2024 00:00
Search period end: 23 September 2024 00:00
Orbit: 507 x 3226 km, 33.4° (Epoch: 13 September)

Date Brightness Start Highest point End Pass type
(mag) Time Alt. Az. Time Alt. Az. Time Alt. Az.
15 Sep 11.6 01:56:41 10° SSE 02:04:09 14° SE 02:11:33 10° ESE visible
17 Sep 11.5 01:27:54 10° SSE 01:35:55 14° SE 01:44:06 10° ESE visible
18 Sep 11.3 02:14:55 10° S 02:27:18 22° SE 02:39:56 10° ESE visible
19 Sep 11.3 00:59:29 10° SSE 01:07:36 15° SE 01:16:10 10° ESE visible
20 Sep 11.1 01:46:46 10° S 01:58:52 23° SE 02:11:51 10° ESE visible
21 Sep 11.2 00:31:22 10° SSE 00:39:15 15° SE 00:47:51 10° ESE visible
22 Sep 11.0 01:18:50 10° S 01:30:24 23° SE 01:43:28 10° ESE visible
